Weather History for Shawano, WI

Change the Weather History Date:

Saturday, March 9, 2013

  Actual Average (KGRB) Record (KGRB)
Temperature  
Mean Temperature 29 °F 28 °F  
Max Temperature 37 °F 36 °F 56 °F (2000)
Min Temperature 21 °F 20 °F -6 °F (1975)
Degree Days  
Heating Degree Days 36 37  
Month to date heating degree days 348  
Since 1 July heating degree days 6188  
Cooling Degree Days 0 0  
Month to date cooling degree days 0  
Year to date cooling degree days 0  
Moisture  
Dew Point 29 °F    
Average Humidity 88    
Maximum Humidity 93    
Minimum Humidity 75    
Precipitation  
Precipitation 0.19 in 0.06 in 1.27 in (1918)
Month to date precipitation 0.51  
Year to date precipitation 2.75  
Snow  
Snow 0.00 in 0.30 in 12.00 in (1918)
Month to date snowfall 3.1  
Since 1 July snowfall 43.3  
Snow Depth -    
Sea Level Pressure  
Sea Level Pressure 30.03 in    
Wind  
Wind Speed 3 mph (SE)    
Max Wind Speed 12 mph    
Max Gust Speed 16 mph    
Visibility 5 miles    
Events Rain , Snow    
T = Trace of Precipitation, MM = Missing Value Source: NWS Daily Summary

Daily Weather History Graph

Daily Weather History Graph

Search for Another Location

Airport:

Trip Planner

Search our weather history database for the weather conditions in past years. The results will help you decide how hot, cold, wet, or windy it might be!

Date:

Astronomy

Mar. 09, 2013 Rise Set
Actual Time 6:17 AM CST 5:52 PM CST
Civil Twilight 5:48 AM CST 6:22 PM CST
Nautical Twilight 5:14 AM CST 6:55 PM CST
Astronomical Twilight 4:40 AM CST 7:30 PM CST
Moon 4:45 AM CST (3/9) 3:51 PM CST (3/9)
Length of Visible Light 12h 34m
Length of Day
11h 35m
Waning Crescent, 5% of the Moon is Illuminated
Mar 9
Waning Crescent
Mar 11
New
Mar 19
First Quarter
Mar 27
Full
Apr 2
Last Quarter

Hourly Weather History & Observations

Time (CST) Temp. Windchill Dew Point Humidity Pressure Visibility Wind Dir Wind Speed Gust Speed Precip Events Conditions
12:15 AM 24.8 °F - 23.0 °F 93% 30.27 in 3.0 mi Calm Calm - N/A   Clear
12:35 AM 23.0 °F - 21.2 °F 93% 30.26 in 1.2 mi Calm Calm - N/A   Mist
12:55 AM 23.0 °F - 21.2 °F 93% 30.26 in 3.0 mi Calm Calm - N/A   Clear
1:15 AM 23.0 °F - 21.2 °F 93% 30.26 in 3.0 mi Calm Calm - N/A   Clear
1:35 AM 23.0 °F - 21.2 °F 93% 30.25 in 2.5 mi Calm Calm - N/A   Clear
1:55 AM 21.2 °F - 19.4 °F 93% 30.24 in 2.5 mi Calm Calm - N/A   Clear
2:15 AM 21.2 °F - 19.4 °F 93% 30.23 in 2.5 mi Calm Calm - N/A   Clear
2:35 AM 23.0 °F - 19.4 °F 86% 30.23 in 2.0 mi Calm Calm - N/A   Clear
3:15 AM 21.2 °F - 19.4 °F 93% 30.21 in 2.5 mi Calm Calm - N/A   Clear
3:35 AM 21.2 °F - 19.4 °F 93% 30.20 in 2.5 mi Calm Calm - N/A   Clear
3:55 AM 23.0 °F - 21.2 °F 93% 30.20 in 4.0 mi Calm Calm - N/A   Clear
4:15 AM 24.8 °F - 23.0 °F 93% 30.20 in 4.0 mi Calm Calm - N/A   Clear
4:35 AM 26.6 °F - 23.0 °F 86% 30.20 in 5.0 mi Calm Calm - N/A   Clear
4:55 AM 26.6 °F - 23.0 °F 86% 30.20 in 5.0 mi Calm Calm - N/A   Clear
5:15 AM 26.6 °F - 23.0 °F 86% 30.20 in 5.0 mi Calm Calm - N/A   Clear
5:35 AM 26.6 °F - 23.0 °F 86% 30.20 in 5.0 mi Calm Calm - N/A   Clear
6:15 AM 26.6 °F 21.2 °F 24.8 °F 93% 30.17 in 5.0 mi East 4.6 mph - N/A   Scattered Clouds
6:35 AM 26.6 °F - 23.0 °F 86% 30.17 in 5.0 mi Calm Calm - N/A   Scattered Clouds
6:55 AM 28.4 °F - 24.8 °F 86% 30.16 in 5.0 mi Calm Calm - N/A   Overcast
7:15 AM 28.4 °F - 24.8 °F 86% 30.17 in 5.0 mi Calm Calm - N/A   Overcast
7:35 AM 28.4 °F - 26.6 °F 93% 30.17 in 5.0 mi Calm Calm - N/A   Overcast
7:55 AM 28.4 °F - 26.6 °F 93% 30.16 in 5.0 mi Calm Calm - N/A   Overcast
8:15 AM 30.2 °F - 26.6 °F 86% 30.16 in 7.0 mi Calm Calm - N/A   Overcast
8:35 AM 30.2 °F 26.7 °F 26.6 °F 86% 30.15 in 7.0 mi ENE 3.5 mph - N/A   Overcast
9:15 AM 32.0 °F - 28.4 °F 87% 30.13 in 7.0 mi Calm Calm - N/A   Overcast
9:35 AM 35.6 °F 31.7 °F 28.4 °F 75% 30.12 in 10.0 mi South 4.6 mph - N/A   Scattered Clouds
9:55 AM 35.6 °F 29.9 °F 28.4 °F 75% 30.10 in 10.0 mi SSE 6.9 mph - N/A   Mostly Cloudy
10:15 AM 35.6 °F 30.7 °F 28.4 °F 75% 30.09 in 7.0 mi SSE 5.8 mph - N/A   Overcast
10:35 AM 35.6 °F 29.2 °F 30.2 °F 81% 30.08 in 3.0 mi SSE 8.1 mph - N/A Snow Light Snow
10:55 AM 35.6 °F 29.9 °F 30.2 °F 81% 30.06 in 7.0 mi SSE 6.9 mph - N/A   Overcast
11:15 AM 35.6 °F 30.7 °F 32.0 °F 87% 30.06 in 7.0 mi SSE 5.8 mph - N/A   Overcast
11:35 AM 35.6 °F 29.2 °F 32.0 °F 87% 30.05 in 7.0 mi SE 8.1 mph - N/A   Overcast
11:55 AM 35.6 °F 28.0 °F 32.0 °F 87% 30.05 in 7.0 mi SE 10.4 mph - N/A   Overcast
12:15 PM 35.6 °F 30.7 °F 32.0 °F 87% 30.03 in 7.0 mi SE 5.8 mph - N/A   Overcast
12:35 PM 35.6 °F 29.9 °F 32.0 °F 87% 30.03 in 10.0 mi SE 6.9 mph - N/A   Overcast
1:15 PM 35.6 °F 28.0 °F 32.0 °F 87% 29.99 in 10.0 mi SE 10.4 mph - N/A   Overcast
1:35 PM 35.6 °F 29.9 °F 32.0 °F 87% 29.99 in 10.0 mi SE 6.9 mph - N/A   Overcast
1:55 PM 37.4 °F 31.4 °F 32.0 °F 81% 29.97 in 10.0 mi SE 8.1 mph 16.1 mph N/A   Overcast
2:15 PM 37.4 °F 30.8 °F 32.0 °F 81% 29.96 in 10.0 mi SE 9.2 mph - N/A   Overcast
2:35 PM 37.4 °F 30.3 °F 32.0 °F 81% 29.96 in 10.0 mi SE 10.4 mph - N/A   Overcast
2:55 PM 37.4 °F 30.8 °F 32.0 °F 81% 29.95 in 10.0 mi SE 9.2 mph - N/A   Overcast
3:15 PM 35.6 °F 27.5 °F 32.0 °F 87% 29.94 in 10.0 mi SE 11.5 mph - N/A   Overcast
3:35 PM 35.6 °F 28.0 °F 32.0 °F 87% 29.92 in 10.0 mi SE 10.4 mph - N/A   Overcast
3:55 PM 35.6 °F 28.0 °F 32.0 °F 87% 29.91 in 10.0 mi SE 10.4 mph 16.1 mph N/A   Overcast
4:15 PM 35.6 °F 29.9 °F 32.0 °F 87% 29.91 in 10.0 mi SE 6.9 mph - N/A   Drizzle
4:35 PM 35.6 °F 29.9 °F 32.0 °F 87% 29.91 in 5.0 mi SSE 6.9 mph - 0.01 in Rain Light Rain
4:55 PM 35.6 °F 28.6 °F 32.0 °F 87% 29.90 in 5.0 mi SE 9.2 mph - 0.03 in Rain Light Rain
5:15 PM 35.6 °F 29.2 °F 32.0 °F 87% 29.89 in 4.0 mi SE 8.1 mph - 0.02 in Rain Rain
5:35 PM 35.6 °F 28.6 °F 32.0 °F 87% 29.88 in 4.0 mi SE 9.2 mph - 0.04 in Rain Rain
5:55 PM 35.6 °F 29.9 °F 32.0 °F 87% 29.88 in 4.0 mi SE 6.9 mph - 0.08 in Rain Rain
6:15 PM 35.6 °F 30.7 °F 32.0 °F 87% 29.88 in 3.0 mi SSE 5.8 mph - 0.02 in Rain Rain
6:35 PM 35.6 °F 28.0 °F 32.0 °F 87% 29.87 in 4.0 mi SE 10.4 mph - 0.04 in   Drizzle
6:55 PM 35.6 °F 29.2 °F 32.0 °F 87% 29.87 in 4.0 mi SSE 8.1 mph - 0.04 in Rain Light Rain
7:15 PM 35.6 °F 30.7 °F 32.0 °F 87% 29.87 in 4.0 mi SSE 5.8 mph - N/A   Drizzle
7:35 PM 35.6 °F 31.7 °F 32.0 °F 87% 29.87 in 3.0 mi SSE 4.6 mph - N/A   Drizzle
8:15 PM 35.6 °F 32.8 °F 33.8 °F 93% 29.86 in 3.0 mi SSE 3.5 mph - N/A Rain Light Rain
8:35 PM 35.6 °F - 33.8 °F 93% 29.86 in 2.5 mi Calm Calm - 0.02 in Rain Light Rain
8:55 PM 35.6 °F 31.7 °F 33.8 °F 93% 29.86 in 2.5 mi SSE 4.6 mph - 0.04 in   Drizzle
9:15 PM 35.6 °F 31.7 °F 33.8 °F 93% 29.85 in 2.5 mi SSE 4.6 mph - N/A   Drizzle
9:35 PM 35.6 °F - 33.8 °F 93% 29.85 in 2.0 mi Calm Calm - N/A   Drizzle
9:55 PM 35.6 °F 31.7 °F 33.8 °F 93% 29.84 in 2.0 mi SSE 4.6 mph - N/A   Drizzle
10:15 PM 35.6 °F - 33.8 °F 93% 29.84 in 2.0 mi Calm Calm - N/A   Light Drizzle
10:35 PM 35.6 °F 31.7 °F 33.8 °F 93% 29.82 in 1.8 mi South 4.6 mph - N/A   Overcast
10:55 PM 35.6 °F 32.8 °F 33.8 °F 93% 29.83 in 2.0 mi South 3.5 mph - N/A   Overcast
11:15 PM 35.6 °F 31.7 °F 33.8 °F 93% 29.83 in 1.8 mi South 4.6 mph - N/A   Overcast
11:35 PM 35.6 °F 32.8 °F 33.8 °F 93% 29.82 in 1.8 mi South 3.5 mph - N/A   Overcast